owner,sensor,date,latitude,longitude,air_temperature,qcFlag 
COMPS,ioos:station:USF.COMPS:ARP:1,2009-08-01T00:00:00Z,28.4330,-82.6670,29.26,1111122 
COMPS,ioos:station:USF.COMPS:ARP:1,2009-08-01T00:06:00Z,28.4330,-82.6670,29.15,1111122 
COMPS,ioos:station:USF.COMPS:ARP:1,2009-08-01T00:12:00Z,28.4330,-82.6670,29.13,1111122 
COMPS,ioos:station:USF.COMPS:ARP:1,2009-08-01T00:18:00Z,28.4330,-82.6670,29.24,1111122 
COMPS,ioos:station:USF.COMPS:ARP:1,2009-08-01T00:24:00Z,28.4330,-82.6670,29.19,1111122 
COMPS,ioos:station:USF.COMPS:ARP:1,2009-08-01T00:30:00Z,28.4330,-82.6670,29.05,1111122 
COMPS,ioos:station:USF.COMPS:ARP:1,2009-08-01T00:36:00Z,28.4330,-82.6670,29.0,1111122 
COMPS,ioos:station:USF.COMPS:ARP:1,2009-08-01T00:42:00Z,28.4330,-82.6670,28.8,1111122 
COMPS,ioos:station:USF.COMPS:ARP:1,2009-08-01T00:48:00Z,28.4330,-82.6670,28.26,1111122 
COMPS,ioos:station:USF.COMPS:ARP:1,2009-08-01T00:54:00Z,28.4330,-82.6670,28.06,1111122 
COMPS,ioos:station:USF.COMPS:ARP:1,2009-08-01T01:00:00Z,28.4330,-82.6670,27.75,1111122 
COMPS,ioos:station:USF.COMPS:ARP:1,2009-08-01T01:06:00Z,28.4330,-82.6670,27.6,1111122 
COMPS,ioos:station:USF.COMPS:ARP:1,2009-08-01T01:12:00Z,28.4330,-82.6670,27.55,1111122 
COMPS,ioos:station:USF.COMPS:ARP:1,2009-08-01T01:18:00Z,28.4330,-82.6670,27.41,1111122 
COMPS,ioos:station:USF.COMPS:ARP:1,2009-08-01T01:24:00Z,28.4330,-82.6670,27.31,1111122 
COMPS,ioos:station:USF.COMPS:ARP:1,2009-08-01T01:30:00Z,28.4330,-82.6670,27.23,1111122 
COMPS,ioos:station:USF.COMPS:ARP:1,2009-08-01T01:36:00Z,28.4330,-82.6670,27.04,1111122 
COMPS,ioos:station:USF.COMPS:ARP:1,2009-08-01T01:42:00Z,28.4330,-82.6670,26.91,1111122 
COMPS,ioos:station:USF.COMPS:ARP:1,2009-08-01T01:48:00Z,28.4330,-82.6670,26.89,1111122 
COMPS,ioos:station:USF.COMPS:ARP:1,2009-08-01T01:54:00Z,28.4330,-82.6670,26.88,1111122 
COMPS,ioos:station:USF.COMPS:ARP:1,2009-08-01T02:00:00Z,28.4330,-82.6670,26.78,1111122 
COMPS,ioos:station:USF.COMPS:ARP:1,2009-08-01T02:06:00Z,28.4330,-82.6670,26.76,1111122 
COMPS,ioos:station:USF.COMPS:ARP:1,2009-08-01T02:12:00Z,28.4330,-82.6670,26.76,1111122 
COMPS,ioos:station:USF.COMPS:ARP:1,2009-08-01T02:18:00Z,28.4330,-82.6670,26.71,1111122 
COMPS,ioos:station:USF.COMPS:ARP:1,2009-08-01T02:24:00Z,28.4330,-82.6670,26.73,1111122 
COMPS,ioos:station:USF.COMPS:ARP:1,2009-08-01T02:30:00Z,28.4330,-82.6670,26.75,1111122 
COMPS,ioos:station:USF.COMPS:ARP:1,2009-08-01T02:36:00Z,28.4330,-82.6670,26.71,1111122 
COMPS,ioos:station:USF.COMPS:ARP:1,2009-08-01T02:42:00Z,28.4330,-82.6670,26.63,1111122 
COMPS,ioos:station:USF.COMPS:ARP:1,2009-08-01T02:48:00Z,28.4330,-82.6670,26.61,1111122 
COMPS,ioos:station:USF.COMPS:ARP:1,2009-08-01T02:54:00Z,28.4330,-82.6670,26.56,1111122 
COMPS,ioos:station:USF.COMPS:ARP:1,2009-08-01T03:00:00Z,28.4330,-82.6670,26.5,1111122 
COMPS,ioos:station:USF.COMPS:ARP:1,2009-08-01T03:06:00Z,28.4330,-82.6670,26.43,1111122 
COMPS,ioos:station:USF.COMPS:ARP:1,2009-08-01T03:12:00Z,28.4330,-82.6670,26.43,1111122 
COMPS,ioos:station:USF.COMPS:ARP:1,2009-08-01T03:18:00Z,28.4330,-82.6670,26.44,1111122 
COMPS,ioos:station:USF.COMPS:ARP:1,2009-08-01T03:24:00Z,28.4330,-82.6670,26.37,1111122 
COMPS,ioos:station:USF.COMPS:ARP:1,2009-08-01T03:30:00Z,28.4330,-82.6670,26.25,1111122 
COMPS,ioos:station:USF.COMPS:ARP:1,2009-08-01T03:36:00Z,28.4330,-82.6670,26.23,1111122 
COMPS,ioos:station:USF.COMPS:ARP:1,2009-08-01T03:42:00Z,28.4330,-82.6670,26.23,1111122 
COMPS,ioos:station:USF.COMPS:ARP:1,2009-08-01T03:48:00Z,28.4330,-82.6670,26.15,1111122 
COMPS,ioos:station:USF.COMPS:ARP:1,2009-08-01T03:54:00Z,28.4330,-82.6670,26.21,1111122 
COMPS,ioos:station:USF.COMPS:ARP:1,2009-08-01T04:00:00Z,28.4330,-82.6670,26.11,1111122 
COMPS,ioos:station:USF.COMPS:ARP:1,2009-08-01T04:06:00Z,28.4330,-82.6670,26.09,1111122 
COMPS,ioos:station:USF.COMPS:ARP:1,2009-08-01T04:12:00Z,28.4330,-82.6670,25.96,1111122 
COMPS,ioos:station:USF.COMPS:ARP:1,2009-08-01T04:18:00Z,28.4330,-82.6670,25.96,1111122 
COMPS,ioos:station:USF.COMPS:ARP:1,2009-08-01T04:24:00Z,28.4330,-82.6670,25.95,1111122 
COMPS,ioos:station:USF.COMPS:ARP:1,2009-08-01T04:30:00Z,28.4330,-82.6670,25.83,1111122 
COMPS,ioos:station:USF.COMPS:ARP:1,2009-08-01T04:36:00Z,28.4330,-82.6670,25.83,1111122 
COMPS,ioos:station:USF.COMPS:ARP:1,2009-08-01T04:42:00Z,28.4330,-82.6670,25.78,1111122 
COMPS,ioos:station:USF.COMPS:ARP:1,2009-08-01T04:48:00Z,28.4330,-82.6670,25.69,1111122 
COMPS,ioos:station:USF.COMPS:ARP:1,2009-08-01T04:54:00Z,28.4330,-82.6670,25.72,1111122 
COMPS,ioos:station:USF.COMPS:ARP:1,2009-08-01T05:00:00Z,28.4330,-82.6670,25.61,1111122 
COMPS,ioos:station:USF.COMPS:ARP:1,2009-08-01T05:06:00Z,28.4330,-82.6670,25.56,1111122 
COMPS,ioos:station:USF.COMPS:ARP:1,2009-08-01T05:12:00Z,28.4330,-82.6670,25.56,1111122 
COMPS,ioos:station:USF.COMPS:ARP:1,2009-08-01T05:18:00Z,28.4330,-82.6670,25.57,1111122 
COMPS,ioos:station:USF.COMPS:ARP:1,2009-08-01T05:24:00Z,28.4330,-82.6670,25.59,1111122 
COMPS,ioos:station:USF.COMPS:ARP:1,2009-08-01T05:30:00Z,28.4330,-82.6670,25.55,1111122 
COMPS,ioos:station:USF.COMPS:ARP:1,2009-08-01T05:36:00Z,28.4330,-82.6670,25.51,1111122 
COMPS,ioos:station:USF.COMPS:ARP:1,2009-08-01T05:42:00Z,28.4330,-82.6670,25.51,1111122 
COMPS,ioos:station:USF.COMPS:ARP:1,2009-08-01T05:48:00Z,28.4330,-82.6670,25.54,1111122 
COMPS,ioos:station:USF.COMPS:ARP:1,2009-08-01T05:54:00Z,28.4330,-82.6670,25.54,1111122 
COMPS,ioos:station:USF.COMPS:ARP:1,2009-08-01T06:00:00Z,28.4330,-82.6670,25.5,1111122 
COMPS,ioos:station:USF.COMPS:ARP:1,2009-08-01T06:06:00Z,28.4330,-82.6670,25.43,1111122 
COMPS,ioos:station:USF.COMPS:ARP:1,2009-08-01T06:12:00Z,28.4330,-82.6670,25.36,1111122 
COMPS,ioos:station:USF.COMPS:ARP:1,2009-08-01T06:18:00Z,28.4330,-82.6670,25.18,1111122 
COMPS,ioos:station:USF.COMPS:ARP:1,2009-08-01T06:24:00Z,28.4330,-82.6670,25.15,1111122 
COMPS,ioos:station:USF.COMPS:ARP:1,2009-08-01T06:30:00Z,28.4330,-82.6670,25.03,1111122 
COMPS,ioos:station:USF.COMPS:ARP:1,2009-08-01T06:36:00Z,28.4330,-82.6670,25.03,1111122 
COMPS,ioos:station:USF.COMPS:ARP:1,2009-08-01T06:42:00Z,28.4330,-82.6670,25.02,1111122 
COMPS,ioos:station:USF.COMPS:ARP:1,2009-08-01T06:48:00Z,28.4330,-82.6670,24.89,1111122 
COMPS,ioos:station:USF.COMPS:ARP:1,2009-08-01T06:54:00Z,28.4330,-82.6670,24.89,1111122 
COMPS,ioos:station:USF.COMPS:ARP:1,2009-08-01T07:00:00Z,28.4330,-82.6670,24.78,1111122 
COMPS,ioos:station:USF.COMPS:ARP:1,2009-08-01T07:06:00Z,28.4330,-82.6670,24.86,1111122 
COMPS,ioos:station:USF.COMPS:ARP:1,2009-08-01T07:12:00Z,28.4330,-82.6670,24.89,1111122 
COMPS,ioos:station:USF.COMPS:ARP:1,2009-08-01T07:18:00Z,28.4330,-82.6670,24.89,1111122 
COMPS,ioos:station:USF.COMPS:ARP:1,2009-08-01T07:24:00Z,28.4330,-82.6670,24.79,1111122 
COMPS,ioos:station:USF.COMPS:ARP:1,2009-08-01T07:30:00Z,28.4330,-82.6670,24.76,1111122 
COMPS,ioos:station:USF.COMPS:ARP:1,2009-08-01T07:36:00Z,28.4330,-82.6670,24.75,1111122 
COMPS,ioos:station:USF.COMPS:ARP:1,2009-08-01T07:42:00Z,28.4330,-82.6670,24.63,1111122 
COMPS,ioos:station:USF.COMPS:ARP:1,2009-08-01T07:48:00Z,28.4330,-82.6670,24.62,1111122 
COMPS,ioos:station:USF.COMPS:ARP:1,2009-08-01T07:54:00Z,28.4330,-82.6670,24.65,1111122 
COMPS,ioos:station:USF.COMPS:ARP:1,2009-08-01T08:00:00Z,28.4330,-82.6670,24.57,1111122 
COMPS,ioos:station:USF.COMPS:ARP:1,2009-08-01T08:06:00Z,28.4330,-82.6670,24.48,1111122 
COMPS,ioos:station:USF.COMPS:ARP:1,2009-08-01T08:12:00Z,28.4330,-82.6670,24.48,1111122 
COMPS,ioos:station:USF.COMPS:ARP:1,2009-08-01T08:18:00Z,28.4330,-82.6670,24.35,1111122 
COMPS,ioos:station:USF.COMPS:ARP:1,2009-08-01T08:24:00Z,28.4330,-82.6670,24.36,1111122 
COMPS,ioos:station:USF.COMPS:ARP:1,2009-08-01T08:30:00Z,28.4330,-82.6670,24.35,1111122 
COMPS,ioos:station:USF.COMPS:ARP:1,2009-08-01T08:36:00Z,28.4330,-82.6670,24.33,1111122 
COMPS,ioos:station:USF.COMPS:ARP:1,2009-08-01T08:42:00Z,28.4330,-82.6670,24.29,1111122 
COMPS,ioos:station:USF.COMPS:ARP:1,2009-08-01T08:48:00Z,28.4330,-82.6670,24.24,1111122 
COMPS,ioos:station:USF.COMPS:ARP:1,2009-08-01T08:54:00Z,28.4330,-82.6670,24.28,1111122 
COMPS,ioos:station:USF.COMPS:ARP:1,2009-08-01T09:00:00Z,28.4330,-82.6670,24.21,1111122 
COMPS,ioos:station:USF.COMPS:ARP:1,2009-08-01T09:06:00Z,28.4330,-82.6670,24.12,1111122 
COMPS,ioos:station:USF.COMPS:ARP:1,2009-08-01T09:12:00Z,28.4330,-82.6670,24.07,1111122 
COMPS,ioos:station:USF.COMPS:ARP:1,2009-08-01T09:18:00Z,28.4330,-82.6670,24.07,1111122 
COMPS,ioos:station:USF.COMPS:ARP:1,2009-08-01T09:24:00Z,28.4330,-82.6670,24.07,1111122 
COMPS,ioos:station:USF.COMPS:ARP:1,2009-08-01T09:30:00Z,28.4330,-82.6670,24.07,1111122 
COMPS,ioos:station:USF.COMPS:ARP:1,2009-08-01T09:36:00Z,28.4330,-82.6670,24.07,1111122 
COMPS,ioos:station:USF.COMPS:ARP:1,2009-08-01T09:42:00Z,28.4330,-82.6670,24.07,1111122 
COMPS,ioos:station:USF.COMPS:ARP:1,2009-08-01T09:48:00Z,28.4330,-82.6670,24.07,1111122 
COMPS,ioos:station:USF.COMPS:ARP:1,2009-08-01T09:54:00Z,28.4330,-82.6670,24.14,1111122 
COMPS,ioos:station:USF.COMPS:ARP:1,2009-08-01T10:00:00Z,28.4330,-82.6670,24.07,1111122 
COMPS,ioos:station:USF.COMPS:ARP:1,2009-08-01T10:06:00Z,28.4330,-82.6670,24.09,1111122 
COMPS,ioos:station:USF.COMPS:ARP:1,2009-08-01T10:12:00Z,28.4330,-82.6670,24.14,1111122 
COMPS,ioos:station:USF.COMPS:ARP:1,2009-08-01T10:18:00Z,28.4330,-82.6670,24.19,1111122 
COMPS,ioos:station:USF.COMPS:ARP:1,2009-08-01T10:24:00Z,28.4330,-82.6670,24.13,1111122 
COMPS,ioos:station:USF.COMPS:ARP:1,2009-08-01T10:30:00Z,28.4330,-82.6670,24.08,1111122 
COMPS,ioos:station:USF.COMPS:ARP:1,2009-08-01T10:36:00Z,28.4330,-82.6670,24.07,1111122 
COMPS,ioos:station:USF.COMPS:ARP:1,2009-08-01T10:42:00Z,28.4330,-82.6670,24.15,1111122 
COMPS,ioos:station:USF.COMPS:ARP:1,2009-08-01T10:48:00Z,28.4330,-82.6670,24.2,1111122 
COMPS,ioos:station:USF.COMPS:ARP:1,2009-08-01T10:54:00Z,28.4330,-82.6670,24.12,1111122 
COMPS,ioos:station:USF.COMPS:ARP:1,2009-08-01T11:00:00Z,28.4330,-82.6670,24.01,1111122 
COMPS,ioos:station:USF.COMPS:ARP:1,2009-08-01T11:06:00Z,28.4330,-82.6670,23.94,1111122 
COMPS,ioos:station:USF.COMPS:ARP:1,2009-08-01T11:12:00Z,28.4330,-82.6670,23.9,1111122 
COMPS,ioos:station:USF.COMPS:ARP:1,2009-08-01T11:18:00Z,28.4330,-82.6670,23.89,1111122 
COMPS,ioos:station:USF.COMPS:ARP:1,2009-08-01T11:24:00Z,28.4330,-82.6670,23.93,1111122 
COMPS,ioos:station:USF.COMPS:ARP:1,2009-08-01T11:30:00Z,28.4330,-82.6670,24.02,1111122 
COMPS,ioos:station:USF.COMPS:ARP:1,2009-08-01T11:36:00Z,28.4330,-82.6670,24.1,1111122 
COMPS,ioos:station:USF.COMPS:ARP:1,2009-08-01T11:42:00Z,28.4330,-82.6670,24.25,1111122 
COMPS,ioos:station:USF.COMPS:ARP:1,2009-08-01T11:48:00Z,28.4330,-82.6670,24.47,1111122 
COMPS,ioos:station:USF.COMPS:ARP:1,2009-08-01T11:54:00Z,28.4330,-82.6670,24.71,1111122 
COMPS,ioos:station:USF.COMPS:ARP:1,2009-08-01T12:00:00Z,28.4330,-82.6670,24.91,1111122 
COMPS,ioos:station:USF.COMPS:ARP:1,2009-08-01T12:06:00Z,28.4330,-82.6670,25.1,1111122 
COMPS,ioos:station:USF.COMPS:ARP:1,2009-08-01T12:12:00Z,28.4330,-82.6670,25.36,1111122 
COMPS,ioos:station:USF.COMPS:ARP:1,2009-08-01T12:18:00Z,28.4330,-82.6670,25.64,1111122 
COMPS,ioos:station:USF.COMPS:ARP:1,2009-08-01T12:24:00Z,28.4330,-82.6670,25.96,1111122 
COMPS,ioos:station:USF.COMPS:ARP:1,2009-08-01T12:30:00Z,28.4330,-82.6670,26.48,1111122 
COMPS,ioos:station:USF.COMPS:ARP:1,2009-08-01T12:36:00Z,28.4330,-82.6670,26.76,1111122 
COMPS,ioos:station:USF.COMPS:ARP:1,2009-08-01T12:42:00Z,28.4330,-82.6670,27.07,1111122 
COMPS,ioos:station:USF.COMPS:ARP:1,2009-08-01T12:48:00Z,28.4330,-82.6670,27.21,1111122 
COMPS,ioos:station:USF.COMPS:ARP:1,2009-08-01T12:54:00Z,28.4330,-82.6670,27.5,1111122 
COMPS,ioos:station:USF.COMPS:ARP:1,2009-08-01T13:00:00Z,28.4330,-82.6670,27.6,1111122 
COMPS,ioos:station:USF.COMPS:ARP:1,2009-08-01T13:06:00Z,28.4330,-82.6670,27.56,1111122 
COMPS,ioos:station:USF.COMPS:ARP:1,2009-08-01T13:12:00Z,28.4330,-82.6670,27.73,1111122 
COMPS,ioos:station:USF.COMPS:ARP:1,2009-08-01T13:18:00Z,28.4330,-82.6670,27.95,1111122 
COMPS,ioos:station:USF.COMPS:ARP:1,2009-08-01T13:24:00Z,28.4330,-82.6670,28.19,1111122 
COMPS,ioos:station:USF.COMPS:ARP:1,2009-08-01T13:30:00Z,28.4330,-82.6670,28.35,1111122 
COMPS,ioos:station:USF.COMPS:ARP:1,2009-08-01T13:36:00Z,28.4330,-82.6670,28.33,1111122 
COMPS,ioos:station:USF.COMPS:ARP:1,2009-08-01T13:42:00Z,28.4330,-82.6670,28.41,1111122 
COMPS,ioos:station:USF.COMPS:ARP:1,2009-08-01T13:48:00Z,28.4330,-82.6670,28.48,1111122 
COMPS,ioos:station:USF.COMPS:ARP:1,2009-08-01T13:54:00Z,28.4330,-82.6670,28.79,1111122 
COMPS,ioos:station:USF.COMPS:ARP:1,2009-08-01T14:00:00Z,28.4330,-82.6670,28.93,1111122 
COMPS,ioos:station:USF.COMPS:ARP:1,2009-08-01T14:06:00Z,28.4330,-82.6670,29.07,1111122 
COMPS,ioos:station:USF.COMPS:ARP:1,2009-08-01T14:12:00Z,28.4330,-82.6670,29.33,1111122 
COMPS,ioos:station:USF.COMPS:ARP:1,2009-08-01T14:18:00Z,28.4330,-82.6670,29.57,1111122 
COMPS,ioos:station:USF.COMPS:ARP:1,2009-08-01T14:24:00Z,28.4330,-82.6670,29.89,1111122 
COMPS,ioos:station:USF.COMPS:ARP:1,2009-08-01T14:30:00Z,28.4330,-82.6670,30.13,1111122 
COMPS,ioos:station:USF.COMPS:ARP:1,2009-08-01T14:36:00Z,28.4330,-82.6670,30.18,1111122 
COMPS,ioos:station:USF.COMPS:ARP:1,2009-08-01T14:42:00Z,28.4330,-82.6670,29.71,1111122 
COMPS,ioos:station:USF.COMPS:ARP:1,2009-08-01T14:48:00Z,28.4330,-82.6670,29.38,1111122 
COMPS,ioos:station:USF.COMPS:ARP:1,2009-08-01T14:54:00Z,28.4330,-82.6670,29.48,1111122 
COMPS,ioos:station:USF.COMPS:ARP:1,2009-08-01T15:00:00Z,28.4330,-82.6670,29.17,1111122 
COMPS,ioos:station:USF.COMPS:ARP:1,2009-08-01T15:06:00Z,28.4330,-82.6670,29.07,1111122 
COMPS,ioos:station:USF.COMPS:ARP:1,2009-08-01T15:12:00Z,28.4330,-82.6670,29.29,1111122 
COMPS,ioos:station:USF.COMPS:ARP:1,2009-08-01T15:18:00Z,28.4330,-82.6670,29.6,1111122 
COMPS,ioos:station:USF.COMPS:ARP:1,2009-08-01T15:24:00Z,28.4330,-82.6670,29.24,1111122 
COMPS,ioos:station:USF.COMPS:ARP:1,2009-08-01T15:30:00Z,28.4330,-82.6670,29.29,1111122 
COMPS,ioos:station:USF.COMPS:ARP:1,2009-08-01T15:36:00Z,28.4330,-82.6670,29.3,1111122 
COMPS,ioos:station:USF.COMPS:ARP:1,2009-08-01T15:42:00Z,28.4330,-82.6670,29.31,1111122 
COMPS,ioos:station:USF.COMPS:ARP:1,2009-08-01T15:48:00Z,28.4330,-82.6670,29.34,1111122 
COMPS,ioos:station:USF.COMPS:ARP:1,2009-08-01T15:54:00Z,28.4330,-82.6670,29.46,1111122 
COMPS,ioos:station:USF.COMPS:ARP:1,2009-08-01T16:00:00Z,28.4330,-82.6670,29.74,1111122 
COMPS,ioos:station:USF.COMPS:ARP:1,2009-08-01T16:06:00Z,28.4330,-82.6670,29.9,1111122 
COMPS,ioos:station:USF.COMPS:ARP:1,2009-08-01T16:12:00Z,28.4330,-82.6670,29.92,1111122 
COMPS,ioos:station:USF.COMPS:ARP:1,2009-08-01T16:18:00Z,28.4330,-82.6670,30.13,1111122 
COMPS,ioos:station:USF.COMPS:ARP:1,2009-08-01T16:24:00Z,28.4330,-82.6670,30.17,1111122 
COMPS,ioos:station:USF.COMPS:ARP:1,2009-08-01T16:30:00Z,28.4330,-82.6670,30.15,1111122 
COMPS,ioos:station:USF.COMPS:ARP:1,2009-08-01T16:36:00Z,28.4330,-82.6670,29.97,1111122 
COMPS,ioos:station:USF.COMPS:ARP:1,2009-08-01T16:42:00Z,28.4330,-82.6670,29.82,1111122 
COMPS,ioos:station:USF.COMPS:ARP:1,2009-08-01T16:48:00Z,28.4330,-82.6670,29.73,1111122 
COMPS,ioos:station:USF.COMPS:ARP:1,2009-08-01T16:54:00Z,28.4330,-82.6670,29.78,1111122 
COMPS,ioos:station:USF.COMPS:ARP:1,2009-08-01T17:00:00Z,28.4330,-82.6670,29.72,1111122 
COMPS,ioos:station:USF.COMPS:ARP:1,2009-08-01T17:06:00Z,28.4330,-82.6670,29.79,1111122 
COMPS,ioos:station:USF.COMPS:ARP:1,2009-08-01T17:12:00Z,28.4330,-82.6670,29.8,1111122 
COMPS,ioos:station:USF.COMPS:ARP:1,2009-08-01T17:18:00Z,28.4330,-82.6670,29.83,1111122 
COMPS,ioos:station:USF.COMPS:ARP:1,2009-08-01T17:24:00Z,28.4330,-82.6670,29.72,1111122 
COMPS,ioos:station:USF.COMPS:ARP:1,2009-08-01T17:30:00Z,28.4330,-82.6670,29.64,1111122 
COMPS,ioos:station:USF.COMPS:ARP:1,2009-08-01T17:36:00Z,28.4330,-82.6670,29.58,1111122 
COMPS,ioos:station:USF.COMPS:ARP:1,2009-08-01T17:42:00Z,28.4330,-82.6670,29.61,1111122 
COMPS,ioos:station:USF.COMPS:ARP:1,2009-08-01T17:48:00Z,28.4330,-82.6670,29.61,1111122 
COMPS,ioos:station:USF.COMPS:ARP:1,2009-08-01T17:54:00Z,28.4330,-82.6670,29.29,1111122 
COMPS,ioos:station:USF.COMPS:ARP:1,2009-08-01T18:00:00Z,28.4330,-82.6670,29.43,1111122 
COMPS,ioos:station:USF.COMPS:ARP:1,2009-08-01T18:06:00Z,28.4330,-82.6670,29.88,1111122 
COMPS,ioos:station:USF.COMPS:ARP:1,2009-08-01T18:12:00Z,28.4330,-82.6670,29.98,1111122 
COMPS,ioos:station:USF.COMPS:ARP:1,2009-08-01T18:18:00Z,28.4330,-82.6670,29.98,1111122 
COMPS,ioos:station:USF.COMPS:ARP:1,2009-08-01T18:24:00Z,28.4330,-82.6670,30.21,1111122 
COMPS,ioos:station:USF.COMPS:ARP:1,2009-08-01T18:30:00Z,28.4330,-82.6670,30.19,1111122 
COMPS,ioos:station:USF.COMPS:ARP:1,2009-08-01T18:36:00Z,28.4330,-82.6670,30.14,1111122 
COMPS,ioos:station:USF.COMPS:ARP:1,2009-08-01T18:42:00Z,28.4330,-82.6670,30.6,1111122 
COMPS,ioos:station:USF.COMPS:ARP:1,2009-08-01T18:48:00Z,28.4330,-82.6670,30.61,1111122 
COMPS,ioos:station:USF.COMPS:ARP:1,2009-08-01T18:54:00Z,28.4330,-82.6670,30.3,1111122 
COMPS,ioos:station:USF.COMPS:ARP:1,2009-08-01T19:00:00Z,28.4330,-82.6670,30.38,1111122 
COMPS,ioos:station:USF.COMPS:ARP:1,2009-08-01T19:06:00Z,28.4330,-82.6670,30.22,1111122 
COMPS,ioos:station:USF.COMPS:ARP:1,2009-08-01T19:12:00Z,28.4330,-82.6670,30.16,1111122 
COMPS,ioos:station:USF.COMPS:ARP:1,2009-08-01T19:18:00Z,28.4330,-82.6670,30.14,1111122 
COMPS,ioos:station:USF.COMPS:ARP:1,2009-08-01T19:24:00Z,28.4330,-82.6670,30.34,1111122 
COMPS,ioos:station:USF.COMPS:ARP:1,2009-08-01T19:30:00Z,28.4330,-82.6670,30.31,1111122 
COMPS,ioos:station:USF.COMPS:ARP:1,2009-08-01T19:36:00Z,28.4330,-82.6670,30.28,1111122 
COMPS,ioos:station:USF.COMPS:ARP:1,2009-08-01T19:42:00Z,28.4330,-82.6670,30.24,1111122 
COMPS,ioos:station:USF.COMPS:ARP:1,2009-08-01T19:48:00Z,28.4330,-82.6670,30.57,1111122 
COMPS,ioos:station:USF.COMPS:ARP:1,2009-08-01T19:54:00Z,28.4330,-82.6670,30.62,1111122 
COMPS,ioos:station:USF.COMPS:ARP:1,2009-08-01T20:00:00Z,28.4330,-82.6670,30.56,1111122 
COMPS,ioos:station:USF.COMPS:ARP:1,2009-08-01T20:06:00Z,28.4330,-82.6670,30.55,1111122 
COMPS,ioos:station:USF.COMPS:ARP:1,2009-08-01T20:12:00Z,28.4330,-82.6670,30.57,1111122 
COMPS,ioos:station:USF.COMPS:ARP:1,2009-08-01T20:18:00Z,28.4330,-82.6670,30.41,1111122 
COMPS,ioos:station:USF.COMPS:ARP:1,2009-08-01T20:24:00Z,28.4330,-82.6670,29.97,1111122 
COMPS,ioos:station:USF.COMPS:ARP:1,2009-08-01T20:30:00Z,28.4330,-82.6670,30.02,1111122 
COMPS,ioos:station:USF.COMPS:ARP:1,2009-08-01T20:36:00Z,28.4330,-82.6670,30.23,1111122 
COMPS,ioos:station:USF.COMPS:ARP:1,2009-08-01T20:42:00Z,28.4330,-82.6670,30.08,1111122 
COMPS,ioos:station:USF.COMPS:ARP:1,2009-08-01T20:48:00Z,28.4330,-82.6670,30.07,1111122 
COMPS,ioos:station:USF.COMPS:ARP:1,2009-08-01T20:54:00Z,28.4330,-82.6670,30.17,1111122 
COMPS,ioos:station:USF.COMPS:ARP:1,2009-08-01T21:00:00Z,28.4330,-82.6670,30.2,1111122 
COMPS,ioos:station:USF.COMPS:ARP:1,2009-08-01T21:06:00Z,28.4330,-82.6670,30.39,1111122 
COMPS,ioos:station:USF.COMPS:ARP:1,2009-08-01T21:12:00Z,28.4330,-82.6670,30.52,1111122 
COMPS,ioos:station:USF.COMPS:ARP:1,2009-08-01T21:18:00Z,28.4330,-82.6670,30.39,1111122 
COMPS,ioos:station:USF.COMPS:ARP:1,2009-08-01T21:24:00Z,28.4330,-82.6670,30.34,1111122 
COMPS,ioos:station:USF.COMPS:ARP:1,2009-08-01T21:30:00Z,28.4330,-82.6670,30.31,1111122 
COMPS,ioos:station:USF.COMPS:ARP:1,2009-08-01T21:36:00Z,28.4330,-82.6670,30.26,1111122 
COMPS,ioos:station:USF.COMPS:ARP:1,2009-08-01T21:42:00Z,28.4330,-82.6670,30.18,1111122 
COMPS,ioos:station:USF.COMPS:ARP:1,2009-08-01T21:48:00Z,28.4330,-82.6670,30.25,1111122 
COMPS,ioos:station:USF.COMPS:ARP:1,2009-08-01T21:54:00Z,28.4330,-82.6670,30.28,1111122 
COMPS,ioos:station:USF.COMPS:ARP:1,2009-08-01T22:00:00Z,28.4330,-82.6670,30.38,1111122 
COMPS,ioos:station:USF.COMPS:ARP:1,2009-08-01T22:06:00Z,28.4330,-82.6670,30.41,1111122 
COMPS,ioos:station:USF.COMPS:ARP:1,2009-08-01T22:12:00Z,28.4330,-82.6670,30.35,1111122 
COMPS,ioos:station:USF.COMPS:ARP:1,2009-08-01T22:18:00Z,28.4330,-82.6670,30.38,1111122 
COMPS,ioos:station:USF.COMPS:ARP:1,2009-08-01T22:24:00Z,28.4330,-82.6670,30.32,1111122 
COMPS,ioos:station:USF.COMPS:ARP:1,2009-08-01T22:30:00Z,28.4330,-82.6670,30.3,1111122 
COMPS,ioos:station:USF.COMPS:ARP:1,2009-08-01T22:36:00Z,28.4330,-82.6670,30.36,1111122 
COMPS,ioos:station:USF.COMPS:ARP:1,2009-08-01T22:42:00Z,28.4330,-82.6670,30.37,1111122 
COMPS,ioos:station:USF.COMPS:ARP:1,2009-08-01T22:48:00Z,28.4330,-82.6670,30.43,1111122 
COMPS,ioos:station:USF.COMPS:ARP:1,2009-08-01T22:54:00Z,28.4330,-82.6670,30.43,1111122 
COMPS,ioos:station:USF.COMPS:ARP:1,2009-08-01T23:00:00Z,28.4330,-82.6670,30.43,1111122 
COMPS,ioos:station:USF.COMPS:ARP:1,2009-08-01T23:06:00Z,28.4330,-82.6670,30.43,1111122 
COMPS,ioos:station:USF.COMPS:ARP:1,2009-08-01T23:12:00Z,28.4330,-82.6670,30.43,1111122 
COMPS,ioos:station:USF.COMPS:ARP:1,2009-08-01T23:18:00Z,28.4330,-82.6670,30.43,1111122 
COMPS,ioos:station:USF.COMPS:ARP:1,2009-08-01T23:24:00Z,28.4330,-82.6670,30.43,1111122 
COMPS,ioos:station:USF.COMPS:ARP:1,2009-08-01T23:30:00Z,28.4330,-82.6670,30.43,1111122 
COMPS,ioos:station:USF.COMPS:ARP:1,2009-08-01T23:36:00Z,28.4330,-82.6670,30.43,1111122 
COMPS,ioos:station:USF.COMPS:ARP:1,2009-08-01T23:42:00Z,28.4330,-82.6670,30.43,1111122 
COMPS,ioos:station:USF.COMPS:ARP:1,2009-08-01T23:48:00Z,28.4330,-82.6670,30.43,1111122 
COMPS,ioos:station:USF.COMPS:ARP:1,2009-08-01T23:54:00Z,28.4330,-82.6670,30.46,1111122 
COMPS,ioos:station:USF.COMPS:ARP:1,2009-08-02T00:00:00Z,28.4330,-82.6670,30.43,1111122 
COMPS,ioos:station:USF.COMPS:ARP:1,2009-08-02T00:06:00Z,28.4330,-82.6670,30.43,1111122 
COMPS,ioos:station:USF.COMPS:ARP:1,2009-08-02T00:12:00Z,28.4330,-82.6670,30.39,1111122 
COMPS,ioos:station:USF.COMPS:ARP:1,2009-08-02T00:18:00Z,28.4330,-82.6670,30.23,1111122 
COMPS,ioos:station:USF.COMPS:ARP:1,2009-08-02T00:24:00Z,28.4330,-82.6670,30.07,1111122 
COMPS,ioos:station:USF.COMPS:ARP:1,2009-08-02T00:30:00Z,28.4330,-82.6670,30.02,1111122 
COMPS,ioos:station:USF.COMPS:ARP:1,2009-08-02T00:36:00Z,28.4330,-82.6670,29.9,1111122 
COMPS,ioos:station:USF.COMPS:ARP:1,2009-08-02T00:42:00Z,28.4330,-82.6670,29.89,1111122 
COMPS,ioos:station:USF.COMPS:ARP:1,2009-08-02T00:48:00Z,28.4330,-82.6670,29.88,1111122 
COMPS,ioos:station:USF.COMPS:ARP:1,2009-08-02T00:54:00Z,28.4330,-82.6670,29.89,1111122 
COMPS,ioos:station:USF.COMPS:ARP:1,2009-08-02T04:00:00Z,28.4330,-82.6670,26.66,1111122 
COMPS,ioos:station:USF.COMPS:ARP:1,2009-08-02T04:06:00Z,28.4330,-82.6670,26.64,1111122 
COMPS,ioos:station:USF.COMPS:ARP:1,2009-08-02T04:12:00Z,28.4330,-82.6670,26.64,1111122 
COMPS,ioos:station:USF.COMPS:ARP:1,2009-08-02T04:18:00Z,28.4330,-82.6670,26.61,1111122 
COMPS,ioos:station:USF.COMPS:ARP:1,2009-08-02T04:24:00Z,28.4330,-82.6670,26.57,1111122 
COMPS,ioos:station:USF.COMPS:ARP:1,2009-08-02T04:30:00Z,28.4330,-82.6670,26.5,1111122 
COMPS,ioos:station:USF.COMPS:ARP:1,2009-08-02T04:36:00Z,28.4330,-82.6670,26.48,1111122 
COMPS,ioos:station:USF.COMPS:ARP:1,2009-08-02T04:42:00Z,28.4330,-82.6670,26.41,1111122 
COMPS,ioos:station:USF.COMPS:ARP:1,2009-08-02T04:48:00Z,28.4330,-82.6670,26.37,1111122 
COMPS,ioos:station:USF.COMPS:ARP:1,2009-08-02T04:54:00Z,28.4330,-82.6670,26.39,1111122 
COMPS,ioos:station:USF.COMPS:ARP:1,2009-08-02T05:00:00Z,28.4330,-82.6670,26.37,1111122 
COMPS,ioos:station:USF.COMPS:ARP:1,2009-08-02T05:06:00Z,28.4330,-82.6670,26.37,1111122 
COMPS,ioos:station:USF.COMPS:ARP:1,2009-08-02T05:12:00Z,28.4330,-82.6670,26.35,1111122 
COMPS,ioos:station:USF.COMPS:ARP:1,2009-08-02T05:18:00Z,28.4330,-82.6670,26.23,1111122 
COMPS,ioos:station:USF.COMPS:ARP:1,2009-08-02T05:24:00Z,28.4330,-82.6670,26.23,1111122 
COMPS,ioos:station:USF.COMPS:ARP:1,2009-08-02T05:30:00Z,28.4330,-82.6670,26.17,1111122 
COMPS,ioos:station:USF.COMPS:ARP:1,2009-08-02T05:36:00Z,28.4330,-82.6670,26.12,1111122 
COMPS,ioos:station:USF.COMPS:ARP:1,2009-08-02T05:42:00Z,28.4330,-82.6670,26.09,1111122 
COMPS,ioos:station:USF.COMPS:ARP:1,2009-08-02T05:48:00Z,28.4330,-82.6670,26.09,1111122 
COMPS,ioos:station:USF.COMPS:ARP:1,2009-08-02T05:54:00Z,28.4330,-82.6670,26.12,1111122 
COMPS,ioos:station:USF.COMPS:ARP:1,2009-08-02T06:00:00Z,28.4330,-82.6670,25.98,1111122 
COMPS,ioos:station:USF.COMPS:ARP:1,2009-08-02T06:06:00Z,28.4330,-82.6670,25.89,1111122 